Вернуться в каталог

DELTA 1 DEB

АктивенSSO
NORAD 3812·DEBRIS·🇺🇸 United States

Запущен Dec 15, 1968 с Vandenberg Space Force Base

Loading…

Ближайшие Пролёты (ближайшие 24 часа)

TLE

СвежийSource: Space-Track

Эпоха: Sep 14, 2026, 12:15 UTC

1 03812U 68114D   26257.51087201 -.00000043  00000-0  30170-4 0  9993
2 03812 102.4353 281.0633 0071008  11.8899 148.1431 12.37790027608676

Отслеживайте DELTA 1 DEB в реальном времени с AllMySat

Download on the App Store